Regional Weather Roundup
Issued by NWS

Home | Current Version | Previous Version | Graphics & Text | Print | Product List | Glossary On
Versions: 1 2 3 4 5 6 7 8 9 10 11 12 13 14 15 16 17 18 19 20 21 22 23 24 25 26 27 28 29 30 31 32 33 34 35 36 37 38 39 40 41 42 43 44 45 46 47 48 49 50
000
ASUS45 KABQ 300601
RWRNM
NEW MEXICO REGIONAL WEATHER ROUNDUP
NATIONAL WEATHER SERVICE ALBUQUERQUE NM
1200 AM MDT MON MAY 30 2016

NOTE: "FAIR" MEANS FEW OR NO CLOUDS BELOW 12,000 FEET AGL WITH NO
       SIGNIFICANT WEATHER OR OBSTRUCTIONS TO VISION.

      THIS PRODUCT IS RELEASED AS TWO VERSIONS.  ONE VERSION NEAR
      THE TOP OF THE HOUR CONTAINING PRELIMINARY DATA FROM ALBUQUERQUE
      AND OTHER STATIONS.  A FINAL VERSION WITH ADDITIONAL DATA IS
      ISSUED ABOUT 10 MINUTES AFTER THE HOUR.

NMZ501-503-504-510>518-300700-
NORTHWEST PLATEAU/NORTHCENTRAL MOUNTAINS

CITY           SKY/WX    TMP DP  RH WIND       PRES   REMARKS
FARMINGTON     FAIR      58  19  22 N9        30.04S
6HR MIN TEMP:  57; 6HR MAX TEMP:  82;

SANTA FE       FAIR      64  39  39 E25G32    30.13S
6HR MIN TEMP:  60; 6HR MAX TEMP:  81;

TAOS           FAIR      57  28  33 SE13      30.20R

$$
NMZ402-403-502-505>509-300700-
WESTCENTRAL MOUNTAINS/SOUTHWEST MOUNTAINS

CITY           SKY/WX    TMP DP  RH WIND       PRES   REMARKS
GALLUP         FAIR      48  15  26 NE5       30.16R
6HR MIN TEMP:  46; 6HR MAX TEMP:  79;

GRANTS         FAIR      56  10  16 CALM      30.18S
SILVER CITY      N/A     63  18  17 NW6       30.13S

$$
NMZ407-409-411-412-300700-
SOUTHERN DESERTS

CITY           SKY/WX    TMP DP  RH WIND       PRES   REMARKS
LORDSBURG      FAIR      75  32  20 W13G20    30.04S
DEMING         FAIR      71  36  27 SW8       30.05S
6HR MIN TEMP:  71; 6HR MAX TEMP:  88;

HOLLOMAN AFB   CLOUDY    74  30  19 SE8       30.02S
ALAMOGORDO     FAIR      73  32  21 S10       30.05S
T OR C         FAIR      73  28  18 S10       30.06R
6HR MIN TEMP:  70; 6HR MAX TEMP:  87;


$$
NMZ519>523-300700-
CENTRAL VALLEYS/CENTRAL HIGHLANDS

CITY           SKY/WX    TMP DP  RH WIND       PRES   REMARKS
ALBUQUERQUE    MOCLDY    69  16  13 S8        30.07R
6HR MIN TEMP:  68; 6HR MAX TEMP:  85;

DOUBLE EAGLE   FAIR      63  13  14 SW13      30.10S
CLINES CORNERS FAIR      50  44  80 E16       30.22R
6HR MIN TEMP:  50; 6HR MAX TEMP:  76;

BELEN          FAIR      61  12  14 S6        30.07R
6HR MIN TEMP:  61; 6HR MAX TEMP:  85;

SOCORRO        NOT AVBL

$$
NMZ524>526-539-540-300700-
SOUTHCENTRAL MOUNTAINS

CITY           SKY/WX    TMP DP  RH WIND       PRES   REMARKS
RUIDOSO        NOT AVBL

$$
NMZ527>531-300700-
NORTHEAST HIGHLANDS/NORTHEAST PLAINS

CITY           SKY/WX    TMP DP  RH WIND       PRES   REMARKS
LAS VEGAS      FAIR      48  44  86 S9        30.27R
6HR MIN TEMP:  48; 6HR MAX TEMP:  73;

RATON          CLOUDY    48  43  82 N8        30.25S
6HR MIN TEMP:  48; 6HR MAX TEMP:  74;

CLAYTON        FAIR      52  50  93 SW10      30.17F
6HR MIN TEMP:  52; 6HR MAX TEMP:  59; 6HR PCP: TRACE;


$$
NMZ532>537-300700-
EASTCENTRAL PLAINS

CITY           SKY/WX    TMP DP  RH WIND       PRES   REMARKS
TUCUMCARI      FAIR      53  50  89 NE5       30.15S
6HR MIN TEMP:  53; 6HR MAX TEMP:  71; 6HR PCP:  0.01;

CANNON AFB     FAIR      53  53 100 S8        30.15F
6HR MIN TEMP:  53; 6HR MAX TEMP:  67;

CLOVIS AIRPORT FAIR      54  48  82 SE8       30.15S

$$
NMZ028-029-538-300700-
SOUTHEAST PLAINS

CITY           SKY/WX    TMP DP  RH WIND       PRES   REMARKS
ROSWELL        MOCLDY    62  51  67 SE10      30.13S
6HR MIN TEMP:  62; 6HR MAX TEMP:  85;

ARTESIA        MOCLDY    63  54  72 SE13G22   30.11S
CARLSBAD       CLOUDY    64  55  72 E16G22    30.09R
6HR MIN TEMP:  64; 6HR MAX TEMP:  82;

HOBBS          FAIR      57  57 100 E13G22    30.14F


$$



USA.gov is the U.S. government's official web portal to all federal, state and local government web resources and services.